Regional Weather Roundup
Issued by NWS

Home | Current Version | Previous Version | Graphics & Text | Print | Product List | Glossary On
Versions: 1 2 3 4 5 6 7 8 9 10 11 12 13 14 15 16 17 18 19 20 21 22 23 24 25 26 27 28 29 30 31 32 33 34 35 36 37 38 39 40 41 42 43 44 45 46 47 48 49 50
935
ASUS43 KOAX 241302
RWRNE

WEATHER ROUNDUP FOR NEBRASKA
NATIONAL WEATHER SERVICE OMAHA NE
800 AM CDT WED AUG 24 2016

NOTES: SATELLITE DATA IS BEING USED TO AUGMENT CLOUD COVER ABOVE
       12000 FEET.
       "FAIR" INDICATES FEW OR NO CLOUDS BELOW 12,000 FEET WITH NO
       SIGNIFICANT WEATHER AND/OR OBSTRUCTIONS TO VISIBILITY.

  * THESE STATIONS DO NOT REPORT WEATHER SUCH AS RAIN...SNOW OR FOG.

NEZ001>004-019>022-054>056-241400-
NEBRASKA PANHANDLE

CITY           SKY/WX    TMP DP  RH WIND       PRES   REMARKS
SCOTTSBLUFF    CLOUDY    58  43  57 NE6       30.18R
ALLIANCE       CLOUDY    49  46  90 W5        30.16S
CHADRON        CLOUDY    49  38  65 CALM      30.18R
SIDNEY         CLOUDY    59  46  62 VRB3      30.18R
$$

NEZ057>060-069>072-079>082-241400-
SOUTHWEST NEBRASKA

CITY           SKY/WX    TMP DP  RH WIND       PRES   REMARKS
NORTH PLATTE   CLOUDY    58  48  69 SE3       30.10R
IMPERIAL       CLOUDY    61  43  51 W6        30.13R
LEXINGTON      CLOUDY    56  52  87 NW6       30.06F
MCCOOK         CLOUDY    61  50  67 N5        30.08R
OGALLALA       CLOUDY    62  42  47 CALM      30.12R
$$

NEZ005>010-023>029-035>040-094-241400-
NORTH CENTRAL NEBRASKA

CITY           SKY/WX    TMP DP  RH WIND       PRES   REMARKS
VALENTINE      PTSUNNY   51  42  71 S6        30.11R
AINSWORTH      CLOUDY    54  47  78 W6        30.09R
BROKEN BOW     CLOUDY    54  51  90 CALM      30.07S
O`NEILL        CLOUDY    56  49  76 W6        30.04S
ORD            CLOUDY    54  50  86 CALM      30.04R
THEDFORD       CLOUDY    55  46  69 W3        30.10F
$$

NEZ041-046>049-061>064-073>077-083>087-241400-
SOUTH CENTRAL NEBRASKA

CITY           SKY/WX    TMP DP  RH WIND       PRES   REMARKS
GRAND ISLAND   CLOUDY    63  56  78 N7        30.03R
AURORA         CLOUDY    65  65 100 N7        30.02R
HASTINGS       CLOUDY    62  57  83 N8        30.02R
HEBRON         CLOUDY    67  65  91 N3        29.96R
HOLDREGE       CLOUDY    60  51  69 N8        30.04S
KEARNEY *      CLOUDY    61  52  72 N9        30.03S
YORK           CLOUDY    68  63  83 N7        30.01R
$$

NEZ011>018-030>034-042>045-241400-
NORTHEAST NEBRASKA

CITY           SKY/WX    TMP DP  RH WIND       PRES   REMARKS
NORFOLK        PTSUNNY   60  53  77 W6        30.01R
ALBION         CLOUDY    56  53  87 CALM      30.04R
BLAIR          MOSUNNY   69  64  86 NW7       29.96R
FREMONT        MOSUNNY   66  64  90 W7        29.98R
TEKAMAH        PTSUNNY   68  62  81 NW10      29.96R
WAYNE          CLOUDY    60  56  86 CALM      30.01R
$$

NEZ050>053-065>068-078-088>093-241400-
SOUTHEAST NEBRASKA

CITY           SKY/WX    TMP DP  RH WIND       PRES   REMARKS
LINCOLN        CLOUDY    70  66  87 NW9       29.98R
OMAHA EPPLEY   PTSUNNY   71  65  81 N5        29.92S
BEATRICE       MOSUNNY   66  64  91 N3        29.95S
FALLS CITY     CLOUDY    67  65  93 CALM      29.94R
NEBRASKA CITY  CLOUDY    65  65 100 N3        29.97R
PLATTSMOUTH    CLOUDY    67  65  94 CALM      29.97R
$$

NEZ044-045-051>053-067-241400-
OMAHA AREA

CITY           SKY/WX    TMP DP  RH WIND       PRES   REMARKS
OMAHA EPPLEY   PTSUNNY   71  65  81 N5        29.92S
BLAIR          MOSUNNY   69  64  86 NW7       29.96R
FREMONT        MOSUNNY   66  64  90 W7        29.98R
MILLARD        CLOUDY    71  66  84 NW6       29.95R
OFFUTT AFB     CLOUDY    69  66  90 W5        29.95R
PLATTSMOUTH    CLOUDY    67  65  94 CALM      29.97R
WAHOO          FAIR      68  63  84 NW7       29.97S
$$




USA.gov is the U.S. government's official web portal to all federal, state and local government web resources and services.